Regional Weather Roundup
Issued by NWS

Home | Current Version | Previous Version | Text Only | Print | Product List | Glossary On
Versions: 1 2 3 4 5 6 7 8 9 10 11 12 13 14 15 16 17 18 19 20 21 22 23 24 25 26 27 28 29 30 31 32 33 34 35 36 37 38 39 40 41 42 43 44 45 46 47 48 49 50
000
ASUS45 KBOU 192207
RWRCO

WEATHER ROUNDUP FOR COLORADO
NATIONAL WEATHER SERVICE DENVER/BOULDER CO
400 PM MDT TUE AUG 19 2014

NOTE: "FAIR" INDICATES FEW OR NO CLOUDS BELOW 12000 FEET WITH NO
SIGNIFICANT WEATHER AND/OR OBSTRUCTIONS TO VISIBILITY.

COZ001>005-013-030-031-192300-
...NORTHWEST COLORADO...

CITY           SKY/WX    TMP DP  RH WIND       PRES   REMARKS
CRAIG            N/A     68  54  60 CALM      30.06F
HAYDEN         MOSUNNY   64  50  59 CALM      30.08F
MEEKER         PTSUNNY   68  53  58 MISG      30.06F
MOUNT WERNER   NOT AVBL
STEAMBOAT SPGS MOSUNNY   66  50  56 SW6       30.09F
WALDEN         CLOUDY    70  39  32 NW7       30.13F
$$

COZ006>008-011-192300-
...WEST CENTRAL VALLEYS...

CITY           SKY/WX    TMP DP  RH WIND       PRES   REMARKS
GRAND JUNCTION PTSUNNY   75  52  44 W15       29.92F
MONTROSE       PTSUNNY   82  46  28 N5        29.95F
EAGLE          MOSUNNY   82  41  23 W12       29.99F
RIFLE          MOSUNNY   83  42  23 W9        29.92F
DELTA          PTSUNNY   87  47  24 S7        29.91F
NUCLA          PTSUNNY   81  43  26 S12       29.99F
$$

COZ017>023-064>068-192300-
...SOUTHWEST COLORADO...

CITY           SKY/WX    TMP DP  RH WIND       PRES   REMARKS
DURANGO        LGT RAIN  72  48  42 SE13      30.05S
CORTEZ         CLOUDY    77  49  37 S13       30.01F
PAGOSA SPRINGS CLOUDY    77  34  20 SW12      30.11F
TELLURIDE      CLOUDY    68  37  32 SE7G18    30.20F
WOLF CREEK PAS NOT AVBL
$$

COZ009-010-012-014-032>034-037-058>063-192300-
...CENTRAL COLORADO...

CITY           SKY/WX    TMP DP  RH WIND       PRES   REMARKS
ASPEN          TSTM      60  49  66 SE17G26   30.16R
BUENA VISTA    DRIZZLE   58  48  69 W22G36    30.18R
COPPER MTN     CLOUDY    54  37  54 S36G41    30.43F
BERTHOUD PASS  CLOUDY    45  45 100 MISG      30.48S
COTTONWOOD PAS RAIN      52  45  76 W20G30    30.33R
GUNNISON       PTSUNNY   70  43  37 N9        30.14F
KREMMLING      MOSUNNY   81  28  15 W12G18    30.06F
LEADVILLE      CLOUDY    54  45  71 SE5       30.29R
MONARCH PASS   CLOUDY    46  39  76 SW8       30.54F
SALIDA         CLOUDY    67  46  46 W16G26    30.19F
SUNLIGHT       MOSUNNY   64  48  55 SW3       30.33F THUNDER
WILKERSON PASS PTSUNNY   59  32  36 S8        30.42
$$

COZ069>075-192300-
...SAN LUIS VALLEY/SANGRE DE CRISTO MOUNTAINS...

CITY           SKY/WX    TMP DP  RH WIND       PRES   REMARKS
ALAMOSA        PTSUNNY   77  38  24 S14       30.09F
LA VETA PASS   PTSUNNY   64  41  42 S6        30.30F
SAGUACHE       PTSUNNY   75  41  29 S17       30.12S
$$

COZ035-036-038>040-192300-
...NORTHERN COLORADO FRONT RANGE...

CITY           SKY/WX    TMP DP  RH WIND       PRES   REMARKS
DENVER INTL AP PTSUNNY   80  43  26 W25G36    29.91R THUNDER BLWGDUST
DMNS CITY PARK   N/A     74  45  35 NW18G35   29.92R
AURORA         TSTM      78  46  32 SW22G33   29.97R
FRONT RANGE AP PTSUNNY   90  39  17 NW12      29.91
ERIE MUNI ARPT CLOUDY    77  44  30 SW23G43   29.95R HAZE
BOULDER MUN AP CLOUDY    75  43  31 SW20G35   29.97R
CENTENNIAL     TSTM      70  53  54 SW7       30.00R
BROOMFIELD     SHOWER    66  52  59 W31G45    29.99R
FORT COLLINS   PTSUNNY   86  50  28 N10       29.89S
LONGMONT       PTSUNNY   82  42  24 SW9G21    29.93R
$$

COZ041-046-047-076>085-087-088-192300-
...PIKES PEAK/PALMER DIVIDE AND SOUTHERN FOOTHILLS...

CITY           SKY/WX    TMP DP  RH WIND       PRES   REMARKS
COLO. SPRINGS  PTSUNNY   75  51  43 CALM      30.00F THUNDER
A. F. ACADEMY  PTSUNNY   77  44  30 S10       30.01F
ELLICOTT       TSTM      81  44  27 NW10      29.96F
FALCON         LGT RAIN  72  43  36 CALM      30.06S
FORT CARSON    PTSUNNY   78  53  40 NE9       29.95F
LIMON          MOSUNNY   91  39  16 S16G25    29.88F
MONUMENT HILL  LGT RAIN  77  34  20 NW3G22    30.03F
TRINIDAD       CLOUDY    78  43  28 W21G28    29.97F
$$

COZ042>045-048>051-090-091-192300-
...NORTHEAST COLORADO...

CITY           SKY/WX    TMP DP  RH WIND       PRES   REMARKS
GREELEY ARPT   PTSUNNY   88  52  29 NW14      29.87S
AKRON          MOSUNNY   92  46  20 SE12G22   29.84F
BURLINGTON     SUNNY     95  46  18 S14       29.83F
WRAY             N/A     95  51  22 SE10G22   29.80F
STERLING       MOSUNNY   95  54  24 SE7       29.79F
HOLYOKE        NOT AVBL
FORT MORGAN    MOSUNNY   94  46  19 SE7       29.84F
$$

COZ086-089-092>099-192300-
...SOUTHEAST COLORADO...

CITY           SKY/WX    TMP DP  RH WIND       PRES   REMARKS
PUEBLO         PTSUNNY   89  45  21 SE17      29.84F
LA JUNTA       MOSUNNY   96  43  16 S13       29.80F
LAMAR          SUNNY     99  44  15 S14G24    29.76F
SPRINGFIELD      N/A     93  41  16 S17G26    29.86F
$$



USA.gov is the U.S. government's official web portal to all federal, state and local government web resources and services.